Wind_Speed
15 13 12 11 10 11 14 15 15 16 15 17 19 20 21 20 20 20 19 18 18 17 17 17 17 18 19 20 21 21 22 23 24 25 26 27 29 30 32 33 35 37 39 40
15 13 15 14 13 14 15 15 15 15 16 19 22 21 21 21 21 21 20 19 18 18 18 18 18 19 20 21 22 23 24 25 26 26 28 29 30 32 34 35 37 39 41 42
15 14 16 15 14 15 16 16 15 15 17 20 22 22 21 20 20 21 20 19 19 19 19 19 20 21 22 23 24 25 25 27 28 29 30 31 33 34 36 38 39 41 43 44
17 16 16 13 14 15 15 15 16 17 19 20 21 21 21 20 20 20 20 20 20 20 20 21 21 22 23 24 25 26 27 29 30 31 32 33 35 36 38 39 41 43 45 45
17 17 15 15 18 18 16 16 16 16 18 19 20 21 22 21 20 20 20 21 21 22 22 22 23 24 25 26 27 28 30 31 33 34 35 36 37 39 40 41 42 45 46 46
18 17 17 21 22 21 20 20 17 17 19 20 19 21 23 23 22 22 22 22 23 23 24 24 25 26 27 28 29 30 32 34 36 37 38 38 39 40 41 43 44 45 46 46
18 18 19 24 24 22 21 23 18 17 19 19 21 23 25 24 25 25 24 24 25 25 26 26 27 28 29 30 32 33 35 37 38 40 41 40 41 42 43 44 45 46 47 46
22 23 24 27 27 27 25 22 18 20 22 23 26 26 27 28 28 27 26 26 27 27 27 28 29 31 32 33 35 36 38 39 41 42 44 43 44 44 45 46 47 47 47 47
27 28 28 30 28 26 23 22 23 25 25 27 28 28 30 30 30 30 29 29 29 30 30 31 32 33 35 37 38 39 40 42 43 44 45 46 47 47 47 48 49 49 48 47
29 31 30 28 28 28 28 28 29 29 30 30 31 31 32 32 32 33 32 32 32 33 34 34 35 37 38 39 40 41 43 44 45 46 46 47 48 49 49 51 51 49 49 48
32 33 32 30 30 31 31 30 31 31 32 33 33 33 33 34 34 35 35 35 36 37 38 39 39 40 42 43 44 44 46 47 47 48 48 49 49 50 52 51 49 49 49 48
33 33 34 34 32 32 33 32 32 33 33 34 34 35 35 35 36 37 38 38 39 40 41 42 42 43 44 45 46 47 48 49 49 50 51 51 52 52 52 51 50 48 47 47
31 31 32 33 33 33 34 34 34 34 34 35 35 36 37 37 38 39 40 40 41 42 43 44 45 46 47 48 49 50 51 51 51 52 52 54 54 54 53 51 50 49 47 45
30 31 32 33 34 34 35 36 36 36 36 36 37 38 38 39 40 41 42 43 44 44 45 46 47 48 50 50 51 51 52 52 52 53 54 54 54 53 52 51 50 48 46 44
31 32 33 34 35 36 36 37 38 38 38 39 39 40 40 41 42 43 44 44 45 46 47 49 50 51 52 52 52 53 53 53 54 55 55 54 54 53 52 51 49 47 45 43
33 34 35 36 37 38 38 39 40 41 42 42 42 43 43 43 44 45 46 47 48 49 50 51 52 53 53 54 54 55 55 55 55 56 55 54 53 52 51 50 47 45 42 40
35 35 36 38 39 40 41 42 43 44 44 44 45 45 46 46 47 48 48 49 50 52 53 53 54 54 55 55 56 56 57 56 56 57 56 55 53 52 50 48 45 43 40 38
36 37 39 40 41 42 43 44 45 45 46 46 47 48 49 49 50 50 51 51 53 54 55 55 55 55 56 57 58 58 58 57 57 57 56 55 53 51 49 45 43 40 37 35
38 39 40 41 42 43 44 45 46 47 47 48 49 50 51 52 53 53 54 54 55 56 56 56 57 57 58 59 59 59 59 59 58 57 55 54 52 49 46 43 40 37 35 33
39 40 41 42 43 45 46 47 48 49 50 51 51 52 53 54 55 55 56 56 57 57 58 58 58 59 59 59 59 59 59 58 57 55 53 51 49 45 42 40 37 34 32 30
40 41 42 44 45 47 48 49 50 51 52 53 53 54 55 56 56 57 57 57 58 58 58 58 59 59 59 59 59 58 56 55 53 51 49 46 44 41 38 36 33 31 28 26
43 44 45 46 47 48 49 50 52 53 54 54 55 55 56 56 57 57 57 58 58 58 57 57 57 58 57 57 55 54 52 50 48 46 43 40 38 35 34 31 29 27 25 24
45 46 47 48 49 50 51 52 53 54 54 55 55 56 56 56 56 55 55 55 56 55 55 55 54 54 52 51 50 48 47 45 42 39 37 34 31 29 28 27 25 23 22 22
47 48 48 49 50 51 52 52 52 53 53 53 53 53 54 53 53 52 53 52 52 52 51 50 49 48 47 46 45 43 41 38 35 32 30 28 26 24 23 22 22 21 21 20
48 49 49 50 50 50 51 51 51 50 50 50 50 50 50 49 49 49 49 48 48 47 46 45 45 43 42 41 39 38 35 32 29 28 26 24 22 20 19 18 18 18 18 17
48 48 48 48 48 48 48 48 48 48 47 47 46 45 45 45 45 44 44 44 43 42 41 41 40 38 37 36 34 32 29 26 23 22 20 19 18 18 18 18 18 17 16 15
45 45 46 46 45 45 45 45 45 44 43 43 42 41 41 41 40 40 40 38 38 37 37 36 35 34 33 31 29 26 23 20 18 17 16 16 15 14 14 15 15 15 14 13
Wind_Direction
266 271 285 287 284 279 275 275 272 275 281 280 282 287 294 297 298 298 299 299 300 301 303 304 307 309 312 315 316 317 318 319 319 319 321 323 324 324 324 325 325 325 325 325
266 260 264 266 268 271 275 276 275 273 270 270 275 284 289 293 295 295 296 297 298 299 301 302 304 307 310 313 313 314 315 317 318 319 320 320 321 322 323 323 324 325 325 325
271 257 255 260 261 264 271 269 265 266 266 270 276 282 287 290 290 292 293 295 297 299 300 302 304 306 308 311 312 313 313 315 316 317 318 318 319 321 322 323 323 323 324 324
280 262 258 262 257 259 266 271 271 266 267 272 278 286 288 288 289 291 293 296 298 299 300 302 303 305 307 310 311 312 312 313 314 315 316 316 317 320 322 323 323 324 324 325
278 268 262 256 252 249 242 249 258 263 269 275 283 290 291 289 292 294 296 297 298 298 300 302 303 304 306 308 309 310 311 312 312 313 313 314 316 319 321 323 323 324 324 324
280 272 262 260 256 255 251 248 247 256 268 270 282 290 291 294 296 297 297 297 297 297 298 300 301 303 304 306 308 309 310 312 312 311 311 313 315 317 319 322 324 324 324 324
280 271 262 260 263 261 255 252 247 253 265 271 282 287 290 293 294 296 296 296 296 296 297 298 300 301 303 304 306 308 310 311 313 312 311 311 313 315 318 320 323 324 324 324
274 269 258 259 258 257 259 252 255 263 269 275 280 284 287 290 292 293 293 293 294 295 296 297 298 300 302 303 305 307 310 311 312 313 313 312 313 315 317 319 321 322 322 322
270 271 270 265 264 263 266 269 274 274 277 279 281 282 285 287 289 290 291 292 293 294 295 297 298 299 301 302 302 305 307 309 310 313 314 314 315 315 317 319 319 319 320 321
270 274 274 274 277 279 277 279 279 277 276 277 279 280 282 285 287 289 290 291 292 293 294 295 297 298 299 300 301 302 304 307 308 310 312 313 315 315 315 317 317 317 319 320
268 272 276 278 281 283 282 279 277 275 275 276 278 280 282 283 285 286 287 288 290 291 292 293 294 296 298 299 300 300 303 305 307 309 309 311 313 314 314 315 315 316 317 318
271 272 274 276 279 278 278 277 276 276 276 277 279 280 281 282 283 284 286 287 289 290 291 292 293 294 296 297 299 300 302 304 305 307 308 309 310 312 313 314 314 315 315 316
271 273 274 276 278 278 279 279 279 279 279 279 280 281 282 282 283 284 285 286 287 289 290 291 292 293 294 296 297 299 301 302 303 303 305 307 308 309 310 311 312 313 313 314
270 272 274 275 276 278 279 280 281 281 281 281 282 282 283 283 284 284 285 286 287 288 289 290 291 292 294 295 296 298 299 300 301 301 302 304 306 306 306 308 310 311 311 311
269 270 272 275 276 278 279 280 281 282 283 284 284 284 285 285 285 286 287 287 288 289 289 290 291 292 294 295 296 296 297 298 299 299 300 302 303 304 304 306 307 308 308 309
269 271 273 275 276 278 279 280 282 283 285 286 287 287 288 288 288 288 289 289 289 290 290 291 292 293 294 294 294 295 295 296 297 298 299 300 300 301 302 303 304 305 306 306
272 273 274 276 277 278 280 282 284 285 287 288 289 289 289 289 289 290 290 290 290 291 291 292 293 294 294 293 293 294 294 295 296 296 297 297 297 298 298 299 300 301 302 302
277 277 278 278 279 281 282 284 286 287 288 289 289 289 290 290 291 291 291 291 291 292 292 293 293 293 292 292 292 293 294 294 293 294 294 294 295 295 295 296 297 298 297 296
278 279 280 281 282 284 285 286 287 288 289 290 290 291 291 292 292 292 293 292 292 292 292 293 292 292 292 292 292 292 292 292 291 291 291 291 291 292 291 291 292 292 292 292
280 281 283 284 285 286 286 287 288 289 290 290 291 292 292 293 293 293 293 293 293 293 293 293 293 292 292 292 292 292 291 291 290 290 289 289 289 289 287 286 285 286 287 287
283 283 284 285 286 286 287 288 289 290 290 291 292 292 293 293 293 294 294 294 294 294 294 294 294 293 293 293 292 292 291 290 290 289 288 287 286 285 283 281 280 281 281 281
284 285 286 286 287 287 288 289 290 291 291 292 293 293 294 294 295 295 295 295 295 295 295 295 295 294 294 294 293 293 291 290 289 288 286 284 283 281 278 277 275 274 274 274
286 287 287 288 288 289 290 291 291 292 293 294 294 295 295 295 296 296 296 296 297 297 297 297 296 296 296 295 295 294 293 291 288 286 283 282 278 274 271 270 268 267 266 266
287 288 289 289 290 291 291 292 293 293 294 295 295 296 296 296 296 297 297 298 298 298 299 298 298 297 297 296 295 294 293 290 287 282 279 276 272 267 263 261 260 257 257 260
288 289 290 291 291 292 293 293 294 295 295 296 297 297 298 298 299 299 300 300 300 301 301 301 301 300 299 298 297 295 292 288 284 280 273 269 264 256 251 250 252 254 254 258
289 290 291 292 293 293 294 294 295 296 297 297 298 298 299 299 300 301 301 302 302 303 303 303 303 303 302 301 299 297 293 287 281 275 269 263 253 246 246 245 249 248 248 254
291 292 293 294 294 295 296 296 297 297 298 298 299 299 300 300 301 302 303 303 304 304 305 305 305 305 304 304 301 297 292 284 276 268 259 252 243 238 235 236 238 239 243 250
Height
5852 5852 5851 5851 5852 5853 5853 5853 5853 5852 5850 5849 5847 5847 5846 5845 5845 5843 5842 5841 5840 5838 5837 5836 5834 5832 5831 5829 5826 5824 5822 5819 5816 5813 5809 5805 5801 5797 5793 5788 5782 5777 5771 5765
5847 5848 5848 5848 5849 5850 5850 5849 5849 5849 5848 5845 5844 5844 5843 5842 5841 5840 5838 5837 5836 5835 5833 5832 5830 5828 5827 5824 5822 5820 5817 5814 5811 5807 5804 5800 5796 5791 5786 5781 5775 5770 5764 5757
5842 5843 5843 5844 5845 5845 5845 5844 5845 5844 5844 5841 5841 5840 5839 5839 5837 5836 5834 5833 5832 5830 5829 5828 5826 5824 5822 5820 5817 5815 5812 5808 5805 5801 5797 5793 5789 5784 5779 5774 5768 5762 5755 5749
5837 5838 5838 5841 5840 5840 5840 5840 5840 5839 5838 5837 5836 5835 5834 5834 5832 5831 5830 5828 5827 5826 5824 5823 5821 5819 5817 5814 5812 5809 5806 5802 5799 5795 5791 5786 5782 5777 5771 5766 5760 5753 5747 5740
5832 5832 5833 5835 5833 5833 5833 5834 5834 5834 5833 5832 5831 5830 5828 5827 5827 5826 5825 5824 5822 5820 5819 5818 5816 5813 5811 5808 5806 5803 5799 5796 5792 5788 5784 5779 5774 5769 5763 5757 5751 5744 5738 5730
5827 5827 5828 5828 5826 5826 5828 5827 5827 5827 5827 5827 5826 5825 5823 5821 5821 5820 5819 5818 5817 5815 5813 5811 5809 5807 5804 5802 5799 5796 5792 5789 5784 5780 5775 5771 5766 5760 5754 5748 5742 5735 5728 5721
5822 5822 5822 5820 5820 5820 5821 5820 5819 5819 5820 5820 5820 5820 5818 5815 5815 5814 5813 5812 5810 5809 5807 5805 5802 5800 5797 5794 5791 5788 5784 5780 5776 5771 5766 5762 5757 5751 5745 5739 5733 5726 5719 5712
5814 5815 5816 5812 5813 5813 5812 5811 5810 5812 5813 5814 5814 5813 5811 5810 5809 5808 5807 5805 5804 5802 5800 5798 5795 5792 5790 5786 5783 5779 5775 5771 5767 5762 5757 5752 5747 5741 5736 5730 5724 5717 5710 5703
5808 5808 5807 5805 5803 5803 5803 5804 5805 5807 5807 5807 5807 5806 5805 5803 5802 5800 5799 5797 5796 5794 5792 5789 5787 5784 5781 5778 5774 5770 5766 5762 5757 5752 5747 5742 5736 5731 5726 5720 5714 5707 5700 5694
5801 5799 5797 5797 5797 5798 5800 5801 5800 5800 5801 5801 5800 5799 5797 5795 5794 5792 5790 5788 5787 5785 5783 5780 5778 5775 5771 5768 5764 5760 5756 5752 5747 5742 5737 5732 5727 5721 5715 5710 5703 5696 5690 5683
5795 5794 5791 5791 5792 5792 5793 5793 5793 5793 5793 5792 5791 5790 5789 5787 5786 5784 5782 5779 5777 5775 5773 5770 5768 5765 5761 5758 5754 5750 5746 5741 5736 5732 5727 5722 5717 5711 5705 5700 5693 5686 5680 5673
5789 5789 5787 5785 5785 5785 5785 5785 5785 5785 5784 5783 5782 5781 5779 5778 5776 5774 5772 5770 5768 5765 5762 5759 5757 5754 5751 5747 5743 5739 5734 5730 5725 5720 5715 5710 5705 5700 5694 5688 5683 5676 5670 5664
5782 5780 5780 5779 5779 5778 5776 5776 5775 5775 5775 5773 5772 5771 5769 5768 5766 5764 5762 5760 5757 5755 5752 5749 5745 5742 5739 5735 5731 5727 5722 5718 5713 5708 5703 5698 5693 5687 5682 5678 5672 5666 5660 5655
5775 5774 5772 5772 5771 5770 5768 5767 5766 5765 5764 5763 5762 5761 5759 5757 5755 5753 5751 5749 5746 5743 5740 5737 5733 5729 5726 5722 5719 5714 5710 5705 5701 5696 5691 5686 5681 5676 5671 5666 5661 5655 5650 5645
5766 5765 5765 5764 5762 5761 5760 5758 5757 5755 5754 5753 5751 5750 5748 5746 5744 5742 5739 5736 5734 5730 5727 5724 5720 5716 5712 5709 5705 5700 5696 5691 5687 5682 5678 5673 5668 5663 5659 5654 5649 5644 5640 5635
5757 5757 5756 5755 5753 5752 5751 5749 5747 5745 5744 5742 5740 5738 5736 5734 5732 5729 5726 5723 5720 5716 5713 5709 5706 5702 5698 5694 5689 5686 5681 5677 5672 5668 5663 5659 5655 5650 5646 5642 5638 5633 5629 5625
5748 5748 5747 5745 5744 5742 5740 5739 5737 5735 5733 5730 5728 5726 5723 5721 5718 5715 5712 5709 5705 5701 5697 5694 5691 5687 5682 5678 5673 5670 5666 5662 5657 5653 5649 5645 5641 5637 5633 5629 5625 5622 5618 5615
5739 5738 5736 5735 5733 5731 5729 5727 5725 5723 5721 5718 5715 5712 5710 5707 5704 5701 5697 5694 5690 5685 5681 5678 5675 5671 5666 5661 5657 5653 5649 5645 5641 5637 5633 5629 5626 5623 5619 5616 5613 5611 5608 5604
5729 5727 5725 5724 5722 5720 5718 5715 5713 5710 5707 5704 5701 5698 5695 5691 5688 5685 5681 5678 5673 5669 5666 5661 5657 5653 5649 5644 5640 5636 5632 5628 5624 5620 5616 5613 5611 5608 5606 5603 5601 5599 5597 5594
5718 5716 5714 5712 5710 5707 5705 5702 5700 5697 5693 5690 5687 5683 5680 5676 5672 5668 5665 5661 5656 5652 5648 5644 5639 5635 5630 5626 5621 5617 5613 5609 5605 5602 5599 5597 5595 5593 5592 5590 5589 5588 5586 5585
5707 5705 5702 5700 5697 5694 5691 5688 5685 5682 5679 5675 5672 5668 5664 5660 5656 5652 5647 5643 5639 5635 5630 5625 5620 5615 5611 5607 5602 5598 5594 5590 5587 5584 5582 5581 5579 5578 5578 5577 5576 5576 5576 5575
5694 5692 5690 5687 5684 5681 5678 5674 5671 5667 5664 5660 5656 5652 5648 5643 5639 5634 5630 5625 5621 5616 5612 5607 5602 5597 5592 5587 5583 5579 5575 5572 5569 5568 5566 5565 5565 5565 5565 5565 5566 5566 5566 5567
5681 5679 5676 5673 5670 5667 5663 5660 5656 5652 5648 5644 5640 5635 5631 5627 5622 5618 5613 5608 5603 5599 5594 5589 5584 5579 5574 5570 5566 5562 5559 5556 5554 5552 5552 5552 5552 5552 5554 5555 5556 5556 5557 5558
5667 5664 5662 5658 5655 5652 5648 5644 5640 5636 5632 5628 5624 5619 5615 5610 5606 5601 5596 5592 5587 5582 5578 5573 5568 5563 5559 5555 5551 5547 5544 5542 5540 5539 5539 5540 5541 5542 5544 5545 5547 5548 5549 5551
5653 5650 5647 5643 5640 5636 5633 5629 5625 5621 5617 5613 5609 5604 5599 5595 5591 5586 5582 5577 5572 5568 5563 5559 5554 5550 5545 5541 5537 5534 5531 5529 5528 5528 5529 5530 5531 5533 5535 5537 5539 5541 5543 5544
5639 5636 5632 5629 5625 5622 5618 5615 5611 5607 5603 5599 5595 5591 5586 5581 5577 5573 5568 5564 5559 5555 5550 5546 5542 5537 5533 5529 5526 5523 5520 5519 5519 5519 5520 5521 5523 5525 5528 5530 5533 5535 5537 5538
5625 5621 5618 5615 5611 5608 5604 5601 5597 5593 5589 5585 5582 5578 5574 5569 5565 5561 5557 5553 5549 5544 5540 5536 5531 5527 5523 5520 5516 5514 5512 5511 5510 5511 5513 5515 5517 5519 5522 5525 5528 5530 5532 5534